Change the Weather History Date:

Tuesday, January 31, 2012

  Actual Average Record
Temperature  
Mean Temperature 51 °F 24 °F  
Max Temperature 58 °F 31 °F 58 °F (2012)
Min Temperature 44 °F 17 °F -4 °F (2004)
Degree Days  
Heating Degree Days 14 41  
Month to date heating degree days 1041 1283  
Since 1 July heating degree days 3697  
Cooling Degree Days 0 0  
Month to date cooling degree days 0 0  
Year to date cooling degree days 0 0  
Growing Degree Days 2 (Base 50)    
Moisture  
Dew Point 42 °F    
Average Humidity 67    
Maximum Humidity 80    
Minimum Humidity 57    
Precipitation  
Precipitation 0.00 in 0.05 in 0.47 in (2002)
Month to date precipitation 0.75 1.63  
Year to date precipitation 0.75 1.63  
Sea Level Pressure  
Sea Level Pressure 29.83 in    
Wind  
Wind Speed 12 mph (SW)    
Max Wind Speed 22 mph    
Max Gust Speed 31 mph    
Visibility 10 miles    
Events      
T = Trace of Precipitation, MM = Missing Value Source: NWS Daily Summary

Daily Weather History Graph

Daily Weather History Graph

Search for Another Location

Airport or City:

Trip Planner

Search our weather history database for the weather conditions in past years. The results will help you decide how hot, cold, wet, or windy it might be!

Date:

Astronomy

Jan. 31, 2012 Rise Set
Actual Time 7:06 AM CST 5:04 PM CST
Civil Twilight 6:36 AM CST 5:34 PM CST
Nautical Twilight 6:02 AM CST 6:07 PM CST
Astronomical Twilight 5:29 AM CST 6:40 PM CST
Moon 10:53 AM CST (1/31) 12:54 AM CST (1/31)
Length of Visible Light 10h 57m
Length of Day
9h 58m
First Quarter, 55% of the Moon is Illuminated
Jan 31
First Quarter
Feb 7
Full
Feb 14
Last Quarter
Feb 21
New
Feb 29
First Quarter

Hourly Weather History & Observations

Time (CST) Temp. Windchill Dew Point Humidity Pressure Visibility Wind Dir Wind Speed Gust Speed Precip Events Conditions
1:52 AM 46.9 °F - 36.0 °F 66% 29.86 in 10.0 mi SSW 11.5 mph - N/A   Clear
2:52 AM 46.9 °F - 36.0 °F 66% 29.85 in 10.0 mi SSW 9.2 mph - N/A   Clear
3:52 AM 48.0 °F - 37.0 °F 66% 29.85 in 10.0 mi SSW 10.4 mph - N/A   Clear
4:52 AM 46.9 °F - 37.9 °F 71% 29.85 in 10.0 mi SSW 11.5 mph 19.6 mph N/A   Clear
5:52 AM 46.9 °F - 37.9 °F 71% 29.85 in 10.0 mi SSW 13.8 mph 20.7 mph N/A   Clear
6:52 AM 46.9 °F - 37.0 °F 68% 29.84 in 10.0 mi SSW 13.8 mph - N/A   Clear
7:52 AM 48.0 °F - 36.0 °F 63% 29.86 in 10.0 mi SSW 15.0 mph 26.5 mph N/A   Clear
8:52 AM 50.0 °F - 36.0 °F 59% 29.84 in 10.0 mi SSW 20.7 mph 28.8 mph N/A   Clear
9:52 AM 52.0 °F - 37.0 °F 57% 29.83 in 10.0 mi SW 17.3 mph 26.5 mph N/A   Clear
10:52 AM 55.9 °F - 41.0 °F 57% 29.83 in 10.0 mi SW 12.7 mph 21.9 mph N/A   Clear
11:52 AM 57.9 °F - 43.0 °F 58% 29.81 in 10.0 mi SW 18.4 mph 28.8 mph N/A   Clear
12:22 PM 57.2 °F - 44.6 °F 63% 29.80 in 10.0 mi SW 19.6 mph 31.1 mph N/A   Mostly Cloudy
12:52 PM 57.0 °F - 44.1 °F 62% 29.80 in 10.0 mi SW 13.8 mph 26.5 mph N/A   Overcast
1:52 PM 57.9 °F - 45.0 °F 62% 29.78 in 10.0 mi SW 11.5 mph 25.3 mph N/A   Overcast
2:52 PM 57.0 °F - 46.0 °F 67% 29.78 in 10.0 mi SW 10.4 mph 18.4 mph N/A   Overcast
3:52 PM 57.0 °F - 46.0 °F 67% 29.79 in 10.0 mi SSW 9.2 mph - N/A   Overcast
4:45 PM 57.2 °F - 46.4 °F 67% 29.79 in 10.0 mi SSW 10.4 mph - N/A   Overcast
4:52 PM 57.0 °F - 46.0 °F 67% 29.79 in 10.0 mi SW 8.1 mph - N/A   Overcast
5:52 PM 57.0 °F - 46.0 °F 67% 29.81 in 10.0 mi SW 8.1 mph - N/A   Overcast
6:39 PM 57.2 °F - 46.4 °F 67% 29.82 in 10.0 mi WSW 9.2 mph - N/A   Mostly Cloudy
6:52 PM 55.9 °F - 46.9 °F 72% 29.83 in 10.0 mi WSW 10.4 mph - N/A   Mostly Cloudy
6:59 PM 55.4 °F - 46.4 °F 72% 29.82 in 10.0 mi SW 10.4 mph - N/A   Scattered Clouds
7:52 PM 54.0 °F - 46.0 °F 75% 29.83 in 10.0 mi WSW 9.2 mph - N/A   Clear
8:52 PM 52.0 °F - 46.0 °F 80% 29.84 in 10.0 mi West 8.1 mph - N/A   Clear
9:52 PM 50.0 °F - 44.1 °F 80% 29.86 in 9.0 mi West 10.4 mph - N/A   Clear
10:52 PM 46.9 °F - 37.0 °F 68% 29.88 in 10.0 mi West 9.2 mph - N/A   Clear
11:52 PM 44.1 °F 39.0 °F 35.1 °F 71% 29.91 in 10.0 mi West 9.2 mph - N/A   Clear